Regional Weather Roundup
Issued by NWS Wakefield, VA

Home | Current Version | Previous Version | Graphics & Text | Print | Product List | Glossary On
Versions: 1 2 3 4 5 6 7 8 9 10 11 12 13 14 15 16 17 18 19 20 21 22 23 24 25 26 27 28 29 30 31 32 33 34 35 36 37 38 39 40 41 42 43 44 45 46 47 48 49 50
391
ASUS41 KAKQ 251115
RWRAKQ

REGIONAL WEATHER ROUNDUP
NATIONAL WEATHER SERVICE WAKEFIELD VA
700 AM EDT SAT MAR 25 2017

Note: "fair" indicates few or no clouds below 12,000 feet with no
significant weather and/or obstructions to visibility. * = Denotes
station may not report precipitation (e.g., rain,snow,etc.),
thunder or fog.

VAZ042-051-052>054-056-251200-
NORTHERN VIRGINIA

CITY           SKY/WX    TMP DP  RH WIND       PRES   REMARKS
WASH NATIONAL  CLOUDY    55  48  77 S8        30.18R
DULLES         CLOUDY    56  46  69 S6        30.17R
FORT BELVOIR   CLOUDY    51  45  79 CALM      30.18R
QUANTICO       CLOUDY    54  48  80 S7        30.19R
FREDERICKSBRG* CLOUDY    60  49  67 SW12      30.19R
STAFFORD*      CLOUDY    59  48  67 SW3       30.23R
WARRENTON      CLOUDY    58  45  60 SW3       30.18R
CULPEPER*      MOCLDY    55  48  78 CALM      30.19R
MANASSAS*      MOCLDY    52  46  80 S3        30.18R
LEESBURG*      PTCLDY    54  50  87 SW5       30.18R
WINCHESTER     CLOUDY    59  45  58 SW9       30.17R
FRONT ROYAL*     N/A    N/A N/A N/A MISG        N/A
LURAY*         PTSUNNY   59  50  72 SW6       30.19R
$$

VAZ048-049-060>072-079>083-251200-
CENTRAL AND SOUTH CENTRAL VIRGINIA

CITY           SKY/WX    TMP DP  RH WIND       PRES   REMARKS
RICHMOND       MOCLDY    56  49  77 SW10      30.24R
CHESTERFIELD*  FAIR     N/A N/A N/A SW8       30.26R
PETERSBURG*    CLEAR     55  47  76 S3        30.27R
HANOVER        CLOUDY    59  46  62 SW10      30.25R
TAPPAHANNOCK*  CLOUDY    59  37  42 SW9       30.23R
QUINTON*       FAIR      57  49  76 SW7       30.24R
CHARLOTTSVILLE CLOUDY    56  47  71 S10       30.18F
GORDONSVILLE*  CLOUDY    56  48  72 SW3       30.19S
ORANGE*        CLOUDY    55  45  67 S10       30.21R
LOUISA*        CLOUDY    61  52  72 SW6       30.20S
BUMPASS*       FAIR      57  47  69 SW8G18    30.21R
FARMVILLE*     MOCLDY    59  49  69 SW8       30.23S
CREWE*         FAIR      57  49  76 SW3       30.26R
FORT PICKETT*  FAIR      55  45  68 SW9       30.27R
CHASE CITY*    FAIR      56  48  74 SW3       30.29R
CLARKSVILLE*   FAIR      55  50  82 SW5       30.29R
SOUTH HILL*    CLEAR     56  50  81 SW8       30.34R
LAWRENCEVILLE* FAIR      53  48  84 SW6       30.28R
EMPORIA*       CLEAR     50  46  87 CALM      30.30S
$$

VAZ088>098-251200-
SOUTHEAST VIRGINIA

CITY           SKY/WX    TMP DP  RH WIND       PRES   REMARKS
NORFOLK        MOCLDY    58  49  72 SW16      30.26R
VIRGINIA BEACH CLOUDY    57  47  69 SW16      30.27R
NORFOLK NAVAL  MOCLDY    58  48  69 SW13      30.29R
WEST POINT*    PTCLDY    57  47  68 SW9       30.27R
SALUDA*        FAIR      59  49  70 SW8       30.24R
NEWPORT NEWS   CLEAR     58  49  72 SW16      30.27R
LANGLEY AFB    PTCLDY    58  50  74 SW16      30.26R
FORT EUSTIS    CLEAR     57  49  73 SW7       30.25R
WILLIAMSBURG*  CLEAR     61  50  67 W10G18    30.27R
HR EXEC AP*    FAIR      55  46  71 SW9       30.28R
FRANKLIN*      CLEAR     55  48  79 S6        30.30R
US460-WAKEFLD  PTCLDY    55  49  80 SW6       30.28R
$$

VAZ020-022-025-037-045-251200-
WEST CENTRAL AND SOUTHWEST VIRGINIA

CITY           SKY/WX    TMP DP  RH WIND       PRES   REMARKS
STAUNTON*      MOCLDY    55  46  71 S5        30.23S
WAYNESBORO*    CLOUDY    58  48  69 W6        30.22S
HOT SPRINGS VA CLOUDY    52  41  66 W17       30.27S
LYNCHBURG      CLOUDY    53  46  77 SW3       30.26S
DANVILLE       PTCLDY    53  48  83 SW3       30.30R
SOUTH BOSTON*  FAIR      57  48  72 SW5       30.29R
MARTINSVILLE   CLEAR     53  46  78 CALM      30.31R
ROANOKE        CLOUDY    55  45  68 CALM      30.27S
BLACKSBURG     CLOUDY    46  45  95 CALM      30.31R
DUBLIN*        PTCLDY    49  45  86 W3        30.29R
MARION*        CLOUDY    46  45  96 CALM      30.30S
HILLSVILLE*    MOCLDY    51  46  80 CALM      30.28S
RICHLANDS*     CLOUDY    55  45  68 CALM      30.26S
WISE*          MOCLDY    55  43  62 CALM      30.27R
ABINGDON*      CLOUDY    53  47  82 CALM      30.27R
$$

MDZ021>025-VAZ099-100-251200-
SOUTHERN MARYLAND AND THE DELMARVA PENINSULA

CITY           SKY/WX    TMP DP  RH WIND       PRES   REMARKS
PATUXENT RIVER CLOUDY    58  50  75 SW15      30.18S
BAY BRIDGE APT CLOUDY    54  46  76 S3        30.17R
LEONARDTOWN    CLOUDY    57  46  67 SW12      30.21R
DOVER          PTCLDY    56  51  85 S13       30.15S
GEORGETOWN     CLEAR     58  47  66 SW8       30.19R
EASTON         CLOUDY    55  46  71 S6        30.22R
CAMBRIDGE      CLEAR     55  48  76 S5        30.20R
SALISBURY      PTCLDY    56  48  74 SW10      30.20R
OCEAN CITY     PTCLDY    55  47  74 SW7       30.21R
WALLOPS ISLAND PTCLDY    59  49  69 SW8G18    30.23R
ACCOMACK*      PTCLDY    59  49  69 SW12G17   30.23S
$$

NCZ012>017-030>032-251200-
NORTH CENTRAL AND EASTERN NORTH CAROLINA

CITY           SKY/WX    TMP DP  RH WIND       PRES   REMARKS
ROANOKE RAPIDS FAIR      46  46 100 SW3       30.31R
RALEIGH        MOCLDY    54  49  83 SW3       30.32R
ELIZABETH CITY CLOUDY    54  49  83 SW10      30.31R
AHOSKIE*         N/A     50  48  93 CALM      30.31R
EDENTON*       CLOUDY    55  50  85 CALM      30.33R
CURRITUCK*     CLOUDY    55  49  79 SW7       30.31R
KILL DEVIL HLS NOT AVBL
MANTEO         CLOUDY    52  49  90 SW5       30.32S
CAPE HATTERAS  CLEAR     62  51  67 W9        30.32F
TARBORO*       NOT AVBL
GOLDSBORO      MOCLDY    53  53  99 CALM      30.30S
WASHINGTON     CLOUDY    54  49  83 SW3       30.32S
GREENVILLE     CLOUDY    52  50  93 SW3       30.33R
NEW BERN       CLOUDY    53  50  89 SW6       30.33S
WILMINGTON     CLEAR     49  48  97 CALM      30.33R
$$

VAZ048-251200-
ELSEWHERE

CITY           SKY/WX    TMP DP  RH WIND       PRES   REMARKS
HARRISBURG PA  CLOUDY    45  41  86 CALM      30.12R
BALTIMORE      CLOUDY    58  48  69 SW6       30.16R
ANNAPOLIS      CLOUDY    61  47  59 CALM      30.17R
ANDREWS AFB    MOCLDY    58  47  64 SW9       30.16R
PHILADELPHIA   CLOUDY    53  44  71 SW10      30.14R
HENDERSON NC   CLEAR     48  45  88 SW5       30.31R
GREENSBORO     MOCLDY    52  48  86 SW6       30.30R
ROCKY MOUNT    CLEAR     49  48  97 CALM      30.32R
$$

VAZ100-251200-
MARINE

STATION/POSITION TIME  TEMP    WIND        PRES    WAVE   SWELL
                       AIR SEA DIR/SP/G            HT/PER HT/PER
                 (UTC) (F)     (DEG/KT/KT) (MB)    (FT/S) (FT/S)
CAPE MAY NJ      1048   49 44  220/  4/  6 1021.4R
LEWES DE         1048   60 44  240/ 11/ 16 1021.6R
OCEAN-CITY-INLET 1048   48 44  220/ 11/ 12 1023.1R
WACHAPREAGUE VA  1042   58 48  250/  7/ 15 1023.5R
THOMAS POINT MD  1100   58 44  230/ 10/ 11   N/A
GOOSES REEF MD   1050   53     230/ 10/ 12 1022.4R
COVE POINT MD    1048   60     260/ 19/ 24 1022.4R
SOLOMONS ISLAND  1042   57 45  230/ 13/ 18   N/A
BISHOPS HEAD MD  1048   51 48  180/  5/  6 1023.2R
PINEY POINT MD   1048          270/  8/  9   N/A
POTOMAC MD       1050   53     270/  8/  8 1022.2R
CAMBRIDGE MD     1048   55 44  210/  3/  5 1021.6R
LEWISETTA VA     1042   59 48  250/ 13/ 16 1022.4R
RAPPAHANNOCK LGT 1048          190/ 14/ 15 1024.4R
STINGRAY PT      1050   56     250/ 14/ 17 1023.6R
YORK RVR RNG VA  1042   58     250/ 19/ 26 1023.3R
YORKTOWN VA      1042   60 48  230/ 12/ 16 1023.9R
JAMESTOWN VA     1050   58     220/ 12/ 16   N/A
DOMINION TERM VA 1042   56     240/ 10/ 13 1025.1R
KIPTOPEKE VA     1048      46  220/  7/  8   N/A
CHES BAY BRIDGE  1042   57 47  230/ 16/ 18 1024.6R
CAPE HENRY VA    1042   59     220/ 12/ 19   N/A
WILLOUBY STN VA  1042   56     230/ 16/ 17 1025.6R
S CRANEY ISL VA  1042   58     230/  7/ 10 1024.9R
CAPE HENRY BUOY  1042      48                N/A     2/ 4
CAPE CHARLES BUO 1051      46                N/A     2/ 4
OFFSHORE WE BUOY 1051      47                N/A     3/ 4
64NM E OF VA BCH 1050   53 51  220/ 12/ 14 1025.7R   3/ 5   2/ 6
DUCK PIER NC     1042   57 47  220/ 12/ 15 1025.6R
44100 DUCK FRF   1035      47                N/A     2/ 4
44056 DUCK FRF   1030      48                N/A     2/10
OREGON INLET NC  1042   54 54  200/ 10/ 11 1026.5F
HATTERAS NC      1042   60 54  230/  8/ 11 1026.4F
DIAMOND SHLS NC  1050   69 76  240/ 14/ 16 1026.8F   4/ 5   2/10
CAPE LOOKOUT NC  1100   64     230/  6/  7 1026.5F
$$




USA.gov is the U.S. government's official web portal to all federal, state and local government web resources and services.